Retour au catalogue

METEOR 2-5

ActifMétéoPO
NORAD 11605·PAYLOAD·🇷🇺 Russia

Lancé Oct 31, 1979 depuis Plesetsk Cosmodrome

Loading…

Prochains Passages (prochaines 24 heures)

TLE

FraisSource: Space-Track

Époque: Sep 14, 2026, 15:01 UTC

1 11605U 79095A   26257.62569987 -.00000020  00000-0 -19458-4 0  9992
2 11605  81.2099 144.3621 0015340  16.1266 344.0388 14.07477743405889

Suivez METEOR 2-5 en temps réel avec AllMySat

Download on the App Store